Starlink 6298

operational
NORAD ID: 56391 Int'l Des: 2023-061 Owner: SPXS Country: US Constellation: starlink
LEOCIRCULAR

About Starlink 6298

Description loading...

Live Position

Loading 3D Globe...

Upcoming Passes

Altitude History

Altitude vs Time

uPlot chart will show altitude changes over time

Two-Line Element Set

1 56391U 23061T 25351.15701766 .00000560 00000-0 56490-4 0 9994
2 56391 43.0037 285.5723 0000909 277.6905 82.3834 15.02536263144346
Epoch: Dec 17, 2025 • Age: 18 hours

Current Status

Altitude 561.9 km
Velocity 7.59 km/s
Sub-Earth Point 39.10°N, 69.41°W
Launch Date May 4, 2023
Age 2.6 years
Type internet

Technical Details

Classification Payload
Mass 305.00 kg
Dry Mass 290.00 kg
Total Mass 305.00 kg
Length 0.20 m
Diameter 2.80 m
Span 9.00 m
Shape Box + pan
Manufacturer SPXS
Bus Type Starlink
Phase Status In Orbit
Owner/State SPXS/US

Large Constellations

Loading constellations...